OAL822 SAWH-SCBA

Flight info

Callsign OAL822
Flight time 1h 34m
Altitude 34000
Route ROMIV2A ROMIV UL670 ROGEL ROGEL4
Aircraft B738/M-SDE2E3FGHIRWXY/LB1

Departure

Time 2026-05-09 06:59
Airport Ushuaia - Malvinas Argentinas International Airport (SAWH)

Arrival

Time 2026-05-09 08:34
Airport Balmaceda Airport (SCBA)
Time Latitude Longitude Altitude Speed Heading
2026-05-09 06:53 -54.84245 -68.27364 78 ft 0 kts 266°
2026-05-09 06:56 -54.84245 -68.27365 78 ft 0 kts 266°
2026-05-09 06:59 -54.84248 -68.27443 81 ft 35 kts 266°
2026-05-09 06:59 -54.84287 -68.28418 79 ft 126 kts 266°
2026-05-09 06:59 -54.84374 -68.30376 211 ft 191 kts 268°
2026-05-09 06:59 -54.84441 -68.32746 1251 ft 195 kts 270°
2026-05-09 07:00 -54.84731 -68.35117 2405 ft 201 kts 244°
2026-05-09 07:00 -54.85726 -68.36730 3709 ft 200 kts 211°
2026-05-09 07:00 -54.87137 -68.37117 4553 ft 218 kts 174°
2026-05-09 07:00 -54.88501 -68.35881 5198 ft 234 kts 130°
2026-05-09 07:01 -54.89136 -68.33371 5866 ft 226 kts 85°
2026-05-09 07:01 -54.88848 -68.30779 6522 ft 219 kts 65°
2026-05-09 07:01 -54.88349 -68.28271 6938 ft 222 kts 49°
2026-05-09 07:01 -54.87162 -68.26653 7099 ft 221 kts
2026-05-09 07:02 -54.85624 -68.26768 7297 ft 230 kts 337°
2026-05-09 07:02 -54.84191 -68.28194 7589 ft 246 kts 318°
2026-05-09 07:02 -54.82954 -68.30339 8271 ft 254 kts 312°
2026-05-09 07:02 -54.81786 -68.32617 9058 ft 259 kts 311°
2026-05-09 07:03 -54.80579 -68.34993 9794 ft 266 kts 311°
2026-05-09 07:03 -54.79332 -68.37424 10383 ft 277 kts 312°
2026-05-09 07:03 -54.77983 -68.40026 10552 ft 302 kts 312°
2026-05-09 07:03 -54.76525 -68.42812 10893 ft 319 kts 312°
2026-05-09 07:04 -54.75021 -68.45662 11548 ft 326 kts 312°
2026-05-09 07:04 -54.73484 -68.48562 12334 ft 328 kts 312°
2026-05-09 07:04 -54.71933 -68.51478 13134 ft 331 kts 312°
2026-05-09 07:04 -54.70360 -68.54433 13895 ft 335 kts 312°
2026-05-09 07:05 -54.68778 -68.57396 14594 ft 337 kts 312°
2026-05-09 07:05 -54.67178 -68.60389 15257 ft 340 kts 312°
2026-05-09 07:05 -54.65552 -68.63408 15926 ft 344 kts 312°
2026-05-09 07:05 -54.63905 -68.66431 16600 ft 347 kts 313°
2026-05-09 07:06 -54.62242 -68.69470 17266 ft 350 kts 313°
2026-05-09 07:06 -54.60563 -68.72534 17942 ft 353 kts 313°
2026-05-09 07:06 -54.58867 -68.75627 18593 ft 356 kts 312°
2026-05-09 07:06 -54.57157 -68.78743 19127 ft 360 kts 312°
2026-05-09 07:07 -54.55426 -68.81897 19655 ft 364 kts 312°
2026-05-09 07:07 -54.53678 -68.85078 20131 ft 368 kts 311°
2026-05-09 07:07 -54.51909 -68.88294 20646 ft 372 kts 311°
2026-05-09 07:07 -54.50132 -68.91522 21153 ft 376 kts 311°
2026-05-09 07:08 -54.48320 -68.94808 21650 ft 380 kts 311°
2026-05-09 07:08 -54.46491 -68.98119 22149 ft 384 kts 311°
2026-05-09 07:08 -54.44640 -69.01467 22619 ft 388 kts 311°
2026-05-09 07:08 -54.42766 -69.04851 23080 ft 392 kts 311°
2026-05-09 07:09 -54.40876 -69.08258 23540 ft 396 kts 311°
2026-05-09 07:09 -54.38969 -69.11693 23946 ft 400 kts 311°
2026-05-09 07:09 -54.37041 -69.15159 24364 ft 402 kts 311°
2026-05-09 07:09 -54.35123 -69.18601 24820 ft 403 kts 311°
2026-05-09 07:10 -54.33182 -69.22078 25251 ft 404 kts 311°
2026-05-09 07:10 -54.31231 -69.25570 25666 ft 406 kts 310°
2026-05-09 07:10 -54.29248 -69.29116 26088 ft 408 kts 310°
2026-05-09 07:10 -54.27280 -69.32627 26494 ft 409 kts 310°
2026-05-09 07:11 -54.25306 -69.36147 26878 ft 411 kts 310°
2026-05-09 07:11 -54.23319 -69.39681 27268 ft 413 kts 310°
2026-05-09 07:11 -54.21327 -69.43222 27636 ft 415 kts 310°
2026-05-09 07:11 -54.19342 -69.46744 27998 ft 416 kts 310°
2026-05-09 07:12 -54.17331 -69.50307 28371 ft 417 kts 310°
2026-05-09 07:12 -54.15314 -69.53874 28749 ft 418 kts 310°
2026-05-09 07:12 -54.13288 -69.57454 29092 ft 420 kts 310°
2026-05-09 07:12 -54.11251 -69.61047 29441 ft 421 kts 310°
2026-05-09 07:13 -54.09205 -69.64650 29769 ft 423 kts 310°
2026-05-09 07:13 -54.07159 -69.68250 30089 ft 424 kts 310°
2026-05-09 07:13 -54.05128 -69.71818 30367 ft 426 kts 310°
2026-05-09 07:13 -54.03062 -69.75440 30673 ft 426 kts 310°
2026-05-09 07:14 -54.00991 -69.79029 31108 ft 423 kts 312°
2026-05-09 07:14 -53.98755 -69.82248 31600 ft 423 kts 320°
2026-05-09 07:14 -53.96278 -69.84978 32005 ft 423 kts 322°
2026-05-09 07:14 -53.93774 -69.87636 32330 ft 422 kts 322°
2026-05-09 07:15 -53.91304 -69.90246 32652 ft 421 kts 322°
2026-05-09 07:15 -53.88823 -69.92873 33053 ft 419 kts 321°
2026-05-09 07:15 -53.86359 -69.95491 33456 ft 416 kts 321°
2026-05-09 07:15 -53.83911 -69.98100 33822 ft 414 kts 321°
2026-05-09 07:16 -53.81475 -70.00702 34149 ft 413 kts 321°
2026-05-09 07:16 -53.79035 -70.03311 34218 ft 417 kts 321°
2026-05-09 07:16 -53.74114 -70.08569 34224 ft 418 kts 321°
2026-05-09 07:17 -53.69258 -70.13730 34225 ft 411 kts 321°
2026-05-09 07:17 -53.64415 -70.18867 34237 ft 411 kts 321°
2026-05-09 07:18 -53.59565 -70.24002 34233 ft 411 kts 321°
2026-05-09 07:18 -53.54711 -70.29126 34239 ft 412 kts 321°
2026-05-09 07:19 -53.49879 -70.34212 34248 ft 412 kts 321°
2026-05-09 07:19 -53.45004 -70.39328 34251 ft 413 kts 321°
2026-05-09 07:20 -53.40110 -70.44450 34258 ft 414 kts 321°
2026-05-09 07:20 -53.35211 -70.49563 34261 ft 415 kts 321°
2026-05-09 07:21 -53.30296 -70.54678 34261 ft 416 kts 321°
2026-05-09 07:21 -53.25373 -70.59787 34258 ft 416 kts 321°
2026-05-09 07:22 -53.20479 -70.64853 34255 ft 417 kts 321°
2026-05-09 07:22 -53.15552 -70.69940 34220 ft 417 kts 321°
2026-05-09 07:23 -53.10617 -70.75022 34216 ft 417 kts 321°
2026-05-09 07:23 -53.05682 -70.80091 34208 ft 417 kts 321°
2026-05-09 07:24 -53.00468 -70.84499 34212 ft 428 kts 333°
2026-05-09 07:24 -52.94535 -70.86516 34220 ft 443 kts 346°
2026-05-09 07:25 -52.88408 -70.87326 34212 ft 445 kts 347°
2026-05-09 07:25 -52.82230 -70.88110 34220 ft 445 kts 347°
2026-05-09 07:26 -52.76049 -70.88948 34224 ft 446 kts 347°
2026-05-09 07:26 -52.69863 -70.89817 34236 ft 447 kts 347°
2026-05-09 07:27 -52.63657 -70.90693 34236 ft 448 kts 347°
2026-05-09 07:27 -52.57480 -70.91560 34240 ft 449 kts 347°
2026-05-09 07:28 -52.51237 -70.92433 34240 ft 450 kts 347°
2026-05-09 07:28 -52.44976 -70.93306 34243 ft 451 kts 346°
2026-05-09 07:29 -52.38739 -70.94172 34245 ft 452 kts 346°
2026-05-09 07:29 -52.32442 -70.95045 34245 ft 453 kts 346°
2026-05-09 07:30 -52.26141 -70.95916 34252 ft 455 kts 346°
2026-05-09 07:30 -52.19851 -70.96782 34253 ft 456 kts 346°
2026-05-09 07:31 -52.13503 -70.97654 34248 ft 457 kts 346°
2026-05-09 07:31 -52.07147 -70.98525 34244 ft 458 kts 346°
2026-05-09 07:32 -52.00832 -70.99388 34250 ft 459 kts 346°
2026-05-09 07:32 -51.94439 -71.00246 34254 ft 460 kts 346°
2026-05-09 07:33 -51.84833 -71.01500 34256 ft 462 kts 346°
2026-05-09 07:34 -51.78400 -71.02339 34255 ft 464 kts 346°
2026-05-09 07:34 -51.71994 -71.03183 34257 ft 465 kts 346°
2026-05-09 07:35 -51.65528 -71.04032 34250 ft 467 kts 346°
2026-05-09 07:35 -51.59033 -71.04881 34252 ft 468 kts 346°
2026-05-09 07:36 -51.52519 -71.05728 34253 ft 470 kts 346°
2026-05-09 07:36 -51.45995 -71.06580 34253 ft 471 kts 346°
2026-05-09 07:37 -51.39472 -71.07427 34256 ft 473 kts 345°
2026-05-09 07:37 -51.32900 -71.08275 34256 ft 475 kts 345°
2026-05-09 07:38 -51.26288 -71.09125 34252 ft 477 kts 345°
2026-05-09 07:38 -51.19657 -71.09975 34256 ft 479 kts 345°
2026-05-09 07:39 -51.12997 -71.10826 34256 ft 480 kts 345°
2026-05-09 07:39 -51.06364 -71.11672 34258 ft 482 kts 345°
2026-05-09 07:40 -50.99664 -71.12524 34247 ft 483 kts 345°
2026-05-09 07:40 -50.94075 -71.13232 34245 ft 484 kts 345°
2026-05-09 07:41 -50.87345 -71.14083 34250 ft 485 kts 345°
2026-05-09 07:41 -50.79503 -71.15072 34251 ft 486 kts 345°
2026-05-09 07:42 -50.72752 -71.15920 34254 ft 488 kts 345°
2026-05-09 07:42 -50.67063 -71.16627 34251 ft 489 kts 345°
2026-05-09 07:43 -50.60321 -71.17459 34252 ft 490 kts 345°
2026-05-09 07:43 -50.53494 -71.18298 34260 ft 492 kts 345°
2026-05-09 07:44 -50.46646 -71.19139 34265 ft 493 kts 345°
2026-05-09 07:44 -50.39787 -71.19978 34266 ft 495 kts 345°
2026-05-09 07:45 -50.32894 -71.20820 34268 ft 497 kts 345°
2026-05-09 07:45 -50.25986 -71.21660 34269 ft 499 kts 345°
2026-05-09 07:46 -50.19057 -71.22500 34291 ft 500 kts 345°
2026-05-09 07:46 -50.12102 -71.23342 34300 ft 502 kts 345°
2026-05-09 07:47 -50.05152 -71.24181 34293 ft 504 kts 345°
2026-05-09 07:47 -49.98131 -71.25025 34305 ft 505 kts 345°
2026-05-09 07:48 -49.91118 -71.25865 34307 ft 507 kts 345°
2026-05-09 07:48 -49.84106 -71.26702 34314 ft 507 kts 345°
2026-05-09 07:49 -49.77053 -71.27543 34322 ft 508 kts 345°
2026-05-09 07:49 -49.70013 -71.28379 34328 ft 508 kts 345°
2026-05-09 07:50 -49.62945 -71.29218 34334 ft 509 kts 345°
2026-05-09 07:50 -49.55874 -71.30066 34328 ft 509 kts 345°
2026-05-09 07:51 -49.48845 -71.30926 34330 ft 510 kts 345°
2026-05-09 07:51 -49.41763 -71.31791 34334 ft 511 kts 346°
2026-05-09 07:52 -49.34662 -71.32653 34346 ft 512 kts 346°
2026-05-09 07:52 -49.27561 -71.33511 34323 ft 512 kts 346°
2026-05-09 07:53 -49.20436 -71.34368 34338 ft 513 kts 346°
2026-05-09 07:53 -49.13311 -71.35225 34318 ft 514 kts 346°
2026-05-09 07:54 -49.06217 -71.36074 34322 ft 515 kts 346°
2026-05-09 07:54 -48.99061 -71.36929 34330 ft 515 kts 346°
2026-05-09 07:55 -48.91894 -71.37782 34319 ft 516 kts 346°
2026-05-09 07:55 -48.84723 -71.38633 34321 ft 516 kts 347°
2026-05-09 07:56 -48.77595 -71.39476 34330 ft 517 kts 347°
2026-05-09 07:56 -48.70403 -71.40326 34332 ft 518 kts 347°
2026-05-09 07:57 -48.63214 -71.41172 34342 ft 518 kts 347°
2026-05-09 07:57 -48.55991 -71.42020 34338 ft 519 kts 347°
2026-05-09 07:58 -48.48792 -71.42862 34351 ft 519 kts 347°
2026-05-09 07:58 -48.41620 -71.43699 34357 ft 520 kts 347°
2026-05-09 07:59 -48.34389 -71.44540 34370 ft 520 kts 347°
2026-05-09 07:59 -48.27165 -71.45378 34368 ft 521 kts 347°
2026-05-09 08:00 -48.19943 -71.46213 34384 ft 521 kts 348°
2026-05-09 08:00 -48.12738 -71.47039 34381 ft 521 kts 348°
2026-05-09 08:01 -48.05482 -71.47882 34351 ft 522 kts 348°
2026-05-09 08:01 -47.98232 -71.48710 34386 ft 522 kts 348°
2026-05-09 08:02 -47.90984 -71.49528 34391 ft 522 kts 348°
2026-05-09 08:02 -47.83729 -71.50344 34387 ft 523 kts 348°
2026-05-09 08:03 -47.76516 -71.51153 34391 ft 522 kts 348°
2026-05-09 08:03 -47.69262 -71.51967 34395 ft 522 kts 348°
2026-05-09 08:04 -47.62000 -71.52779 34401 ft 522 kts 348°
2026-05-09 08:04 -47.54749 -71.53588 34405 ft 522 kts 348°
2026-05-09 08:05 -47.47493 -71.54395 34403 ft 523 kts 348°
2026-05-09 08:05 -47.40274 -71.55195 34409 ft 523 kts 348°
2026-05-09 08:06 -47.33009 -71.55999 34416 ft 523 kts 349°
2026-05-09 08:06 -47.25746 -71.56800 34400 ft 523 kts 349°
2026-05-09 08:07 -47.18470 -71.57600 34380 ft 524 kts 349°
2026-05-09 08:07 -47.11232 -71.58394 34375 ft 525 kts 349°
2026-05-09 08:08 -47.03905 -71.59195 34375 ft 525 kts 349°
2026-05-09 08:08 -46.96663 -71.59983 34292 ft 519 kts 349°
2026-05-09 08:08 -46.93016 -71.60382 32409 ft 535 kts 350°
2026-05-09 08:09 -46.89310 -71.60788 31509 ft 528 kts 351°
2026-05-09 08:09 -46.85679 -71.61178 30764 ft 519 kts 351°
2026-05-09 08:09 -46.82107 -71.61560 30239 ft 504 kts 351°
2026-05-09 08:09 -46.78686 -71.61925 30110 ft 481 kts 351°
2026-05-09 08:10 -46.75461 -71.62269 29950 ft 462 kts 351°
2026-05-09 08:10 -46.72304 -71.62612 29494 ft 450 kts 351°
2026-05-09 08:10 -46.69189 -71.62951 28775 ft 447 kts 351°
2026-05-09 08:10 -46.66078 -71.63290 28070 ft 444 kts 351°
2026-05-09 08:11 -46.63008 -71.63622 27421 ft 440 kts 351°
2026-05-09 08:11 -46.59966 -71.63949 26816 ft 435 kts 351°
2026-05-09 08:11 -46.57000 -71.64267 26234 ft 430 kts 352°
2026-05-09 08:11 -46.54027 -71.64586 25644 ft 426 kts 352°
2026-05-09 08:12 -46.48161 -71.65215 24506 ft 418 kts 352°
2026-05-09 08:12 -46.45284 -71.65523 23945 ft 414 kts 352°
2026-05-09 08:12 -46.42428 -71.65828 23314 ft 409 kts 353°
2026-05-09 08:13 -46.39598 -71.66129 22723 ft 404 kts 353°
2026-05-09 08:13 -46.36802 -71.66428 22195 ft 403 kts 353°
2026-05-09 08:13 -46.34056 -71.66721 21865 ft 399 kts 353°
2026-05-09 08:13 -46.31296 -71.67015 21560 ft 394 kts 353°
2026-05-09 08:14 -46.28581 -71.67304 21222 ft 390 kts 353°
2026-05-09 08:14 -46.25882 -71.67592 20859 ft 388 kts 353°
2026-05-09 08:14 -46.23179 -71.67880 20504 ft 386 kts 353°
2026-05-09 08:14 -46.20540 -71.68160 20168 ft 383 kts 353°
2026-05-09 08:15 -46.17887 -71.68442 19831 ft 380 kts 353°
2026-05-09 08:15 -46.15256 -71.68721 19491 ft 377 kts 353°
2026-05-09 08:15 -46.12636 -71.68999 19154 ft 375 kts 353°
2026-05-09 08:15 -46.10048 -71.69273 18831 ft 372 kts 353°
2026-05-09 08:16 -46.07472 -71.69546 18463 ft 370 kts 353°
2026-05-09 08:16 -46.04921 -71.69815 18076 ft 368 kts 353°
2026-05-09 08:16 -46.02373 -71.70084 17675 ft 366 kts 353°
2026-05-09 08:16 -45.99837 -71.70351 17284 ft 364 kts 353°
2026-05-09 08:17 -45.97318 -71.70617 16916 ft 362 kts 353°
2026-05-09 08:17 -45.94871 -71.71095 16514 ft 357 kts 339°
2026-05-09 08:17 -45.92719 -71.72704 16123 ft 345 kts 316°
2026-05-09 08:17 -45.91139 -71.75213 15772 ft 333 kts 297°
2026-05-09 08:18 -45.90182 -71.78168 15396 ft 322 kts 280°
2026-05-09 08:18 -45.89656 -71.81271 15049 ft 318 kts 276°
2026-05-09 08:18 -45.89208 -71.84376 14693 ft 317 kts 276°
2026-05-09 08:18 -45.88756 -71.87472 14361 ft 316 kts 276°
2026-05-09 08:19 -45.88286 -71.90552 14013 ft 314 kts 277°
2026-05-09 08:19 -45.87816 -71.93567 13672 ft 312 kts 277°
2026-05-09 08:19 -45.87311 -71.96592 13309 ft 313 kts 283°
2026-05-09 08:19 -45.86207 -71.99326 12937 ft 325 kts 309°
2026-05-09 08:20 -45.84360 -72.01175 12819 ft 326 kts 335°
2026-05-09 08:20 -45.82160 -72.01734 12674 ft 321 kts
2026-05-09 08:20 -45.80083 -72.00741 12437 ft 315 kts 37°
2026-05-09 08:20 -45.78647 -71.98471 12149 ft 304 kts 68°
2026-05-09 08:21 -45.78198 -71.95619 11831 ft 290 kts 96°
2026-05-09 08:21 -45.78391 -71.92772 11527 ft 285 kts 103°
2026-05-09 08:21 -45.78693 -71.89971 11218 ft 285 kts 103°
2026-05-09 08:21 -45.78967 -71.87169 10980 ft 282 kts 102°
2026-05-09 08:22 -45.79191 -71.84415 10884 ft 274 kts 101°
2026-05-09 08:22 -45.79386 -71.81737 10790 ft 266 kts 101°
2026-05-09 08:22 -45.79565 -71.79147 10710 ft 257 kts 100°
2026-05-09 08:22 -45.79764 -71.76647 10615 ft 247 kts 108°
2026-05-09 08:23 -45.80415 -71.74482 10421 ft 236 kts 124°
2026-05-09 08:23 -45.81212 -71.72413 10144 ft 237 kts 123°
2026-05-09 08:23 -45.82000 -71.70331 9859 ft 238 kts 123°
2026-05-09 08:23 -45.82780 -71.68252 9601 ft 237 kts 122°
2026-05-09 08:24 -45.83522 -71.66129 9327 ft 238 kts 120°
2026-05-09 08:24 -45.84237 -71.63998 9060 ft 237 kts 120°
2026-05-09 08:24 -45.84945 -71.61886 8821 ft 237 kts 119°
2026-05-09 08:24 -45.85661 -71.59753 8569 ft 237 kts 119°
2026-05-09 08:25 -45.86454 -71.57697 8309 ft 234 kts 132°
2026-05-09 08:25 -45.87686 -71.56251 8025 ft 228 kts 157°
2026-05-09 08:25 -45.89200 -71.55724 7740 ft 223 kts 184°
2026-05-09 08:25 -45.90688 -71.56218 7469 ft 221 kts 207°
2026-05-09 08:26 -45.91884 -71.57568 7194 ft 220 kts 232°
2026-05-09 08:26 -45.92555 -71.59513 6944 ft 219 kts 257°
2026-05-09 08:26 -45.92581 -71.61694 6679 ft 220 kts 280°
2026-05-09 08:26 -45.92365 -71.63110 6525 ft 219 kts 280°
2026-05-09 08:27 -45.92076 -71.65254 6271 ft 218 kts 279°
2026-05-09 08:27 -45.91795 -71.67398 6040 ft 217 kts 283°
2026-05-09 08:27 -45.90681 -71.69727 5621 ft 223 kts 326°
2026-05-09 08:27 -45.89170 -71.70386 5170 ft 236 kts 359°
2026-05-09 08:28 -45.87568 -71.69765 4728 ft 247 kts 30°
2026-05-09 08:28 -45.86690 -71.68690 4412 ft 254 kts 50°
2026-05-09 08:28 -45.85980 -71.66399 4197 ft 252 kts 82°
2026-05-09 08:28 -45.85935 -71.63165 4150 ft 237 kts 95°
2026-05-09 08:29 -45.86068 -71.61604 4152 ft 229 kts 98°
2026-05-09 08:29 -45.86301 -71.59385 4153 ft 225 kts 98°
2026-05-09 08:29 -45.86533 -71.57236 4171 ft 210 kts 98°
2026-05-09 08:29 -45.86754 -71.55229 4161 ft 199 kts 99°
2026-05-09 08:30 -45.86965 -71.53327 4162 ft 187 kts 100°
2026-05-09 08:30 -45.87510 -71.51735 4154 ft 175 kts 141°
2026-05-09 08:30 -45.88602 -71.51098 4198 ft 177 kts 183°
2026-05-09 08:30 -45.89749 -71.51666 4059 ft 177 kts 221°
2026-05-09 08:31 -45.90747 -71.52696 3820 ft 176 kts 207°
2026-05-09 08:31 -45.91918 -71.53105 3660 ft 173 kts 193°
2026-05-09 08:31 -45.92974 -71.53984 2795 ft 186 kts 231°
2026-05-09 08:31 -45.93445 -71.55671 2441 ft 178 kts 266°
2026-05-09 08:32 -45.93187 -71.57272 2368 ft 154 kts 294°
2026-05-09 08:32 -45.92881 -71.58632 2231 ft 131 kts 281°
2026-05-09 08:32 -45.92606 -71.61088 1903 ft 132 kts 283°
2026-05-09 08:33 -45.92432 -71.62366 1923 ft 121 kts 279°
2026-05-09 08:33 -45.92266 -71.63540 1866 ft 122 kts 283°
2026-05-09 08:33 -45.92119 -71.64776 1838 ft 132 kts 279°
2026-05-09 08:33 -45.91963 -71.66028 1743 ft 122 kts 279°
2026-05-09 08:34 -45.91815 -71.67220 1704 ft 120 kts 280°
2026-05-09 08:34 -45.91677 -71.68308 1692 ft 101 kts 280°
2026-05-09 08:34 -45.91580 -71.69073 1704 ft 48 kts 280°
2026-05-09 08:34 -45.91553 -71.69280 1709 ft 16 kts 281°
2026-05-09 08:35 -45.91525 -71.69416 1712 ft 11 kts 327°
2026-05-09 08:35 -45.91484 -71.69404 1711 ft 2 kts 37°
2026-05-09 08:35 -45.91459 -71.69360 1709 ft 10 kts 56°
2026-05-09 08:35 -45.91433 -71.69300 1708 ft 0 kts 58°